[[{"header":{"parameterUnit":"m.s-1","parameterCategory":1,"la1":30.2992,"la2":30.254,"lo1":-89.0895,"lo2":-89.0443,"dy":0.0025,"dx":0.0025,"nx":19,"ny":19,"refTime":"2026-05-10T03:00:00:Z","depth":0,"parameterNumber":2,"parameterNumberName":"U-component_of_WINDS"},"data":[0,0,0,-2.339,-2.3389,-2.3325,-2.3325,-2.3277,-2.3277,0,0,0,0,0,0,0,0,0,0,0,-2.3429,-2.3429,-2.339,-2.3389,-2.3325,-2.3325,-2.3277,-2.3277,0,0,0,0,0,0,0,0,0,0,0,-2.3429,-2.3429,-2.343,-2.3389,-2.3325,-2.3325,-2.3277,-2.3313,0,0,0,0,0,0,0,0,0,0,-2.3369,-2.3425,-2.3429,-2.343,-2.3389,-2.3325,-2.3325,-2.3314,-2.3311,-2.3321,0,-2.3334,0,-2.3305,-2.3276,-2.3276,0,0,0,-2.3374,-2.3428,-2.3393,-2.343,-2.3388,-2.3325,-2.335,-2.3312,-2.3308,-2.3317,-2.3333,-2.3331,-2.3305,-2.3276,-2.3276,-2.3385,-2.3386,0,0,-2.3377,-2.3428,-2.3396,-2.3391,-2.3403,-2.3352,-2.3348,-2.3309,-2.3331,-2.3333,-2.3329,-2.3304,-2.3276,-2.3276,-2.3384,-2.3386,0,0,0,-2.3398,-2.3431,-2.3396,-2.3394,-2.338,-2.335,-2.3346,-2.3333,-2.3317,-2.3328,-2.3303,-2.3276,-2.3276,-2.3383,-2.3385,-2.3496,0,0,0,-2.3399,-2.3443,-2.3398,-2.3429,-2.3382,-2.3355,-2.3371,-2.332,-2.3314,-2.3304,-2.3276,-2.3276,-2.3381,-2.3384,-2.349,-2.354,0,0,0,-2.3426,-2.3446,-2.3444,-2.3432,-2.3406,-2.3355,-2.3336,-2.3317,-2.3299,-2.3276,-2.3275,-2.338,-2.3383,-2.3484,-2.3531,-2.3585,0,0,0,-2.347,-2.3541,-2.3446,-2.3517,-2.3407,-2.3425,-2.3336,-2.3346,-2.3339,-2.3276,-2.3381,-2.3384,-2.3483,-2.3525,-2.358,-2.3641,-2.3671,0,0,-2.3588,-2.3557,-2.3595,-2.3508,-2.3556,-2.343,-2.3494,-2.3439,-2.3389,-2.339,-2.3392,-2.3492,-2.353,-2.3584,-2.382,-2.3845,0,0,0,-2.365,-2.3679,-2.368,-2.3677,-2.3638,-2.361,-2.3539,-2.352,-2.3518,-2.34,-2.3524,-2.3545,-2.3575,-2.3602,-2.3623,-2.3646,-2.3399,-2.3398,-2.3398,-2.389,-2.3826,-2.3885,-2.3814,-2.3813,-2.3742,-2.3736,-2.3697,-2.3629,-2.3661,-2.366,-2.3812,-2.3845,-2.386,-2.3885,-2.3687,-2.3687,-2.3687,-2.3688,-2.406,-2.409,-2.4003,-2.403,-2.3962,-2.3983,-2.392,-2.3873,-2.3884,-2.3805,-2.3828,-2.3749,-2.3889,-2.3907,-2.3695,-2.3694,-2.3693,-2.3692,-2.3692,-2.421,-2.4214,-2.419,-2.4182,-2.4184,-2.4109,-2.4126,-2.4062,-2.4002,-2.4025,-2.4019,-2.4017,-2.4009,-2.4027,-2.4028,-2.4028,-2.4029,-2.4029,-2.4029,-2.4376,-2.4346,-2.4367,-2.4336,-2.4328,-2.4309,-2.4243,-2.4233,-2.4206,-2.4159,-2.4159,-2.4091,-2.3914,-2.3872,-2.4037,-2.4036,-2.4035,-2.4034,-2.4033,-2.4572,-2.4518,-2.4552,-2.4544,-2.4504,-2.4512,-2.4432,-2.4419,-2.4402,-2.4413,-2.4341,-2.4221,-2.4184,-2.4167,-2.4132,-2.4354,-2.4354,-2.4354,-2.4354,-2.4699,-2.4676,-2.4697,-2.469,-2.4676,-2.4609,-2.4651,-2.4602,-2.4542,-2.4529,-2.4487,-2.4435,-2.4421,-2.4392,-2.4371,-2.4336,-2.4606,-2.4606,-2.4606,-2.4817,-2.479,-2.4837,-2.4779,-2.4745,-2.4717,-2.4755,-2.4752,-2.4673,-2.4615,-2.4517,-2.4506,-2.4421,-2.4396,-2.4335,-2.4303,-2.4239,0,0]},{"header":{"parameterUnit":"m.s-1","parameterCategory":1,"la1":30.2992,"la2":30.254,"lo1":-89.0895,"lo2":-89.0443,"dy":0.0025,"dx":0.0025,"nx":19,"ny":19,"refTime":"2026-05-10T03:00:00:Z","depth":0,"parameterNumber":3,"parameterNumberName":"V-component_of_WINDS"},"data":[0,0,0,2.5126,2.5127,2.5171,2.5172,2.5207,2.5208,0,0,0,0,0,0,0,0,0,0,0,2.5101,2.5101,2.5126,2.5127,2.5171,2.5172,2.5207,2.5208,0,0,0,0,0,0,0,0,0,0,0,2.5101,2.5101,2.5101,2.5127,2.5171,2.5172,2.5207,2.5181,0,0,0,0,0,0,0,0,0,0,2.5142,2.5106,2.5101,2.5101,2.5127,2.5171,2.5172,2.518,2.5183,2.5179,0,2.5172,0,2.519,2.5209,2.5209,0,0,0,2.5136,2.5104,2.5127,2.5101,2.5128,2.5171,2.5154,2.5182,2.5185,2.5182,2.5173,2.5175,2.5191,2.5209,2.5209,2.5157,2.5157,0,0,2.5133,2.5102,2.5125,2.5129,2.5121,2.5152,2.5155,2.5184,2.5172,2.5173,2.5176,2.5192,2.5209,2.5209,2.5158,2.5157,0,0,0,2.512,2.51,2.5123,2.5127,2.5136,2.5153,2.5157,2.517,2.5181,2.5177,2.5192,2.5209,2.5209,2.5159,2.5158,2.5094,0,0,0,2.5119,2.5092,2.5121,2.5102,2.5135,2.5154,2.5142,2.5179,2.5183,2.5192,2.5209,2.5209,2.5159,2.5158,2.5097,2.5068,0,0,0,2.5102,2.5091,2.5093,2.5101,2.5119,2.5154,2.5166,2.518,2.5192,2.5209,2.5209,2.516,2.5158,2.51,2.5073,2.5044,0,0,0,2.5074,2.5035,2.5091,2.5054,2.5118,2.5115,2.5167,2.5166,2.5173,2.5209,2.5159,2.5158,2.5101,2.5076,2.5047,2.5013,2.4996,0,0,2.5007,2.5026,2.5007,2.5058,2.5037,2.5111,2.5081,2.5117,2.5147,2.5152,2.5151,2.5096,2.5074,2.5045,2.4918,2.4904,0,0,0,2.4975,2.496,2.4962,2.4967,2.4995,2.5016,2.506,2.5074,2.508,2.5143,2.508,2.5068,2.5052,2.5037,2.5026,2.5014,2.515,2.515,2.515,2.4832,2.4875,2.4845,2.4893,2.4898,2.4945,2.4953,2.4979,2.5019,2.5004,2.5004,2.4922,2.4903,2.4895,2.4882,2.4992,2.4992,2.4991,2.4991,2.4736,2.4721,2.4778,2.477,2.4814,2.4808,2.4852,2.4881,2.4881,2.4925,2.4913,2.4956,2.4879,2.487,2.4987,2.4988,2.4988,2.4989,2.4989,2.4645,2.4646,2.4665,2.4678,2.4684,2.4735,2.4732,2.4774,2.4813,2.4802,2.4806,2.4807,2.4812,2.4802,2.4801,2.4801,2.4801,2.4801,2.48,2.4542,2.4566,2.4559,2.4587,2.4597,2.4615,2.4664,2.4674,2.4697,2.4727,2.4727,2.4768,2.4865,2.4887,2.4796,2.4797,2.4797,2.4798,2.4798,2.4424,2.4459,2.4447,2.4457,2.4494,2.4497,2.4552,2.457,2.4585,2.4583,2.4628,2.4693,2.4715,2.4724,2.4742,2.462,2.462,2.462,2.462,2.4346,2.4362,2.4361,2.4374,2.4392,2.4441,2.4427,2.4465,2.451,2.4522,2.4547,2.4576,2.4584,2.46,2.4612,2.463,2.4481,2.4481,2.4481,2.4275,2.4295,2.4275,2.432,2.4353,2.4379,2.4367,2.438,2.4438,2.4477,2.4532,2.4538,2.4585,2.4599,2.4634,2.4652,2.4685,0,0]}]]